{"data":{"norad_id":62183,"epoch":"2026-05-24T22:54:23.792256Z","epoch_age_seconds":72180,"freshness":"FRESH","line1":"1 62183U 24225W   26144.95444204  .00000923  00000+0  85106-4 0  9991","line2":"2 62183  70.0015 332.3700 0002686 265.6548  94.4304 14.98331201 81297","mean_motion":14.98331201,"eccentricity":0.0002686,"inclination_deg":70.0015,"raan_deg":332.37,"arg_perigee_deg":265.6548,"mean_anomaly_deg":94.4304,"bstar":8.5106e-5,"rev_number":8129,"period_min":96.106922090318,"perigee_km":570.18535614054,"apogee_km":573.9189977664,"semimajor_km":6950.1891769535,"source":"CELESTRAK","updated_at":"2026-05-25T13:38:19.604925Z"}}